Location: Balaclava NSW 2575, Australia
(34.4510°S, 150.4953°E)
Time: 07:12:32
(UTC+10:00)

X-37B - Pass Details

Date: 08 August 2021
Orbit: 381 x 393 km, 45.0° (Epoch: 29 August)

Event Time Altitude Azimuth Distance (km) Brightness Sun altitude
Rises 18:39:18 0° 242° (WSW) 2,311 5.4 -16.2°
Reaches altitude 10° 18:41:26 10° 246° (WSW) 1,448 4.3 -16.6°
Maximum altitude 18:44:37 53° 324° (NW) 495 1.3 -17.3°
Enters shadow 18:46:06 27° 29° (NNE) 801 1.9 -17.6°
